contact:dominique.lefevre@mio.osupytheas.fr, maurice.libes@osupytheas.fr, didier.mallarino@osupytheas.fr
Project:EMSO http://www.emso-fr.org/EMSO-France
Depth: 2436.0 m
Title:EMSO Ligure Ouest : Data MII capteur MICROCAT
DateTime_Computer,Latitude,Longitude,Temperature,Conductivity,Pressure,DateTime_Instrument
DateTime_Computer,Latitude,Longitude,degC,S m-1,dbar,DateTime_Instrument
2023-05-08T00:02:25Z,42.805,6.029,13.3014,4.60070,2470.787,2023-5-08T02:05:35Z
2023-05-08T00:05:29Z,42.805,6.029,13.3015,4.60070,2470.824,2023-5-08T02:08:38Z
2023-05-08T00:08:32Z,42.805,6.029,13.3014,4.60070,2470.777,2023-5-08T02:11:41Z
2023-05-08T00:11:35Z,42.805,6.029,13.3017,4.60072,2470.754,2023-5-08T02:14:44Z
2023-05-08T00:14:38Z,42.805,6.029,13.3015,4.60070,2470.763,2023-5-08T02:17:47Z
2023-05-08T00:17:41Z,42.805,6.029,13.3011,4.60070,2470.73,2023-5-08T02:20:50Z
2023-05-08T00:20:44Z,42.805,6.029,13.3016,4.60071,2470.787,2023-5-08T02:23:53Z
2023-05-08T00:23:47Z,42.805,6.029,13.3015,4.60070,2470.787,2023-5-08T02:26:56Z
2023-05-08T00:26:50Z,42.805,6.029,13.3017,4.60070,2470.777,2023-5-08T02:29:59Z
2023-05-08T00:29:53Z,42.805,6.029,13.3016,4.60072,2470.74,2023-5-08T02:33:03Z
2023-05-08T00:32:56Z,42.805,6.029,13.3021,4.60072,2470.74,2023-5-08T02:36:06Z
2023-05-08T00:35:59Z,42.805,6.029,13.3014,4.60071,2470.74,2023-5-08T02:39:09Z
2023-05-08T00:39:02Z,42.805,6.029,13.3019,4.60070,2470.763,2023-5-08T02:42:12Z
2023-05-08T00:42:05Z,42.805,6.029,13.3017,4.60073,2470.754,2023-5-08T02:45:15Z
2023-05-08T00:45:09Z,42.805,6.029,13.3019,4.60072,2470.763,2023-5-08T02:48:18Z
2023-05-08T00:48:12Z,42.805,6.029,13.3020,4.60070,2470.763,2023-5-08T02:51:21Z
2023-05-08T00:51:15Z,42.805,6.029,13.3014,4.60070,2470.777,2023-5-08T02:54:24Z
2023-05-08T00:54:18Z,42.805,6.029,13.3015,4.60070,2470.717,2023-5-08T02:57:27Z
2023-05-08T00:57:21Z,42.805,6.029,13.3019,4.60071,2470.693,2023-5-08T03:00:30Z
2023-05-08T01:00:24Z,42.805,6.029,13.3019,4.60069,2470.754,2023-5-08T03:03:33Z
2023-05-08T01:03:27Z,42.805,6.029,13.3017,4.60071,2470.717,2023-5-08T03:06:36Z
2023-05-08T01:06:30Z,42.805,6.029,13.3017,4.60070,2470.787,2023-5-08T03:09:39Z
2023-05-08T01:09:33Z,42.805,6.029,13.3012,4.60070,2470.763,2023-5-08T03:12:43Z
2023-05-08T01:12:36Z,42.805,6.029,13.3019,4.60072,2470.717,2023-5-08T03:15:46Z
2023-05-08T01:15:39Z,42.805,6.029,13.3017,4.60071,2470.73,2023-5-08T03:18:49Z
2023-05-08T01:18:43Z,42.805,6.029,13.3014,4.60071,2470.707,2023-5-08T03:21:52Z
2023-05-08T01:21:46Z,42.805,6.029,13.3016,4.60072,2470.777,2023-5-08T03:24:55Z
2023-05-08T01:24:49Z,42.805,6.029,13.3016,4.60072,2470.73,2023-5-08T03:27:58Z
2023-05-08T01:27:52Z,42.805,6.029,13.3019,4.60072,2470.693,2023-5-08T03:31:01Z
2023-05-08T01:30:55Z,42.805,6.029,13.3016,4.60072,2470.717,2023-5-08T03:34:04Z
2023-05-08T01:33:58Z,42.805,6.029,13.3020,4.60074,2470.754,2023-5-08T03:37:07Z
2023-05-08T01:37:01Z,42.805,6.029,13.3019,4.60072,2470.74,2023-5-08T03:40:10Z
2023-05-08T01:40:04Z,42.805,6.029,13.3015,4.60072,2470.717,2023-5-08T03:43:14Z
2023-05-08T01:43:07Z,42.805,6.029,13.3018,4.60073,2470.717,2023-5-08T03:46:17Z
2023-05-08T01:46:10Z,42.805,6.029,13.3018,4.60073,2470.717,2023-5-08T03:49:20Z
2023-05-08T01:49:13Z,42.805,6.029,13.3015,4.60073,2470.693,2023-5-08T03:52:23Z
2023-05-08T01:52:16Z,42.805,6.029,13.3015,4.60072,2470.693,2023-5-08T03:55:26Z
2023-05-08T01:55:20Z,42.805,6.029,13.3018,4.60072,2470.693,2023-5-08T03:58:29Z
2023-05-08T01:58:23Z,42.805,6.029,13.3015,4.60072,2470.684,2023-5-08T04:01:32Z
2023-05-08T02:01:26Z,42.805,6.029,13.3016,4.60072,2470.707,2023-5-08T04:04:35Z
2023-05-08T02:04:29Z,42.805,6.029,13.3018,4.60071,2470.74,2023-5-08T04:07:38Z
2023-05-08T02:07:32Z,42.805,6.029,13.3015,4.60071,2470.693,2023-5-08T04:10:41Z
2023-05-08T02:10:35Z,42.805,6.029,13.3018,4.60073,2470.73,2023-5-08T04:13:44Z
2023-05-08T02:13:38Z,42.805,6.029,13.3015,4.60072,2470.707,2023-5-08T04:16:47Z
2023-05-08T02:16:41Z,42.805,6.029,13.3017,4.60071,2470.684,2023-5-08T04:19:50Z
2023-05-08T02:19:44Z,42.805,6.029,13.3018,4.60069,2470.67,2023-5-08T04:22:54Z
2023-05-08T02:22:47Z,42.805,6.029,13.3018,4.60069,2470.717,2023-5-08T04:25:57Z
2023-05-08T02:25:50Z,42.805,6.029,13.3018,4.60071,2470.693,2023-5-08T04:29:00Z
2023-05-08T02:28:53Z,42.805,6.029,13.3017,4.60070,2470.707,2023-5-08T04:32:03Z
2023-05-08T02:31:56Z,42.805,6.029,13.3017,4.60069,2470.646,2023-5-08T04:35:06Z
2023-05-08T02:34:59Z,42.805,6.029,13.3019,4.60073,2470.73,2023-5-08T04:38:09Z
2023-05-08T02:38:03Z,42.805,6.029,13.3014,4.60069,2470.684,2023-5-08T04:41:12Z
2023-05-08T02:41:06Z,42.805,6.029,13.3018,4.60070,2470.693,2023-5-08T04:44:15Z
2023-05-08T02:44:09Z,42.805,6.029,13.3014,4.60069,2470.693,2023-5-08T04:47:18Z
2023-05-08T02:47:12Z,42.805,6.029,13.3014,4.60069,2470.717,2023-5-08T04:50:21Z
2023-05-08T02:50:15Z,42.805,6.029,13.3017,4.60069,2470.693,2023-5-08T04:53:24Z
2023-05-08T02:53:18Z,42.805,6.029,13.3019,4.60070,2470.67,2023-5-08T04:56:27Z
2023-05-08T02:56:21Z,42.805,6.029,13.3018,4.60069,2470.717,2023-5-08T04:59:30Z
2023-05-08T02:59:24Z,42.805,6.029,13.3015,4.60070,2470.67,2023-5-08T05:02:34Z
2023-05-08T03:02:27Z,42.805,6.029,13.3014,4.60072,2470.679,2023-5-08T05:05:37Z
2023-05-08T03:05:30Z,42.805,6.029,13.3017,4.60069,2470.693,2023-5-08T05:08:40Z
2023-05-08T03:08:33Z,42.805,6.029,13.3017,4.60070,2470.67,2023-5-08T05:11:43Z
2023-05-08T03:11:36Z,42.805,6.029,13.3020,4.60069,2470.693,2023-5-08T05:14:46Z
2023-05-08T03:14:40Z,42.805,6.029,13.3014,4.60069,2470.684,2023-5-08T05:17:49Z
2023-05-08T03:17:43Z,42.805,6.029,13.3016,4.60069,2470.707,2023-5-08T05:20:52Z
2023-05-08T03:20:46Z,42.805,6.029,13.3016,4.60069,2470.717,2023-5-08T05:23:55Z
2023-05-08T03:23:49Z,42.805,6.029,13.3016,4.60072,2470.693,2023-5-08T05:26:58Z
2023-05-08T03:26:52Z,42.805,6.029,13.3014,4.60070,2470.693,2023-5-08T05:30:01Z
2023-05-08T03:29:55Z,42.805,6.029,13.3016,4.60069,2470.67,2023-5-08T05:33:04Z
2023-05-08T03:32:58Z,42.805,6.029,13.3016,4.60073,2470.67,2023-5-08T05:36:07Z
2023-05-08T03:36:01Z,42.805,6.029,13.3018,4.60069,2470.67,2023-5-08T05:39:10Z
2023-05-08T03:39:04Z,42.805,6.029,13.3018,4.60069,2470.707,2023-5-08T05:42:14Z
2023-05-08T03:42:07Z,42.805,6.029,13.3016,4.60069,2470.633,2023-5-08T05:45:17Z
2023-05-08T03:45:10Z,42.805,6.029,13.3016,4.60069,2470.67,2023-5-08T05:48:20Z
2023-05-08T03:48:13Z,42.805,6.029,13.3018,4.60070,2470.67,2023-5-08T05:51:23Z
2023-05-08T03:51:16Z,42.805,6.029,13.3013,4.60072,2470.67,2023-5-08T05:54:26Z
2023-05-08T03:54:20Z,42.805,6.029,13.3015,4.60070,2470.67,2023-5-08T05:57:29Z
2023-05-08T03:57:23Z,42.805,6.029,13.3019,4.60073,2470.693,2023-5-08T06:00:32Z
2023-05-08T04:00:26Z,42.805,6.029,13.3016,4.60069,2470.684,2023-5-08T06:03:35Z
2023-05-08T04:03:29Z,42.805,6.029,13.3016,4.60072,2470.693,2023-5-08T06:06:38Z
2023-05-08T04:06:32Z,42.805,6.029,13.3019,4.60072,2470.67,2023-5-08T06:09:41Z
2023-05-08T04:09:35Z,42.805,6.029,13.3015,4.60069,2470.646,2023-5-08T06:12:44Z
2023-05-08T04:12:38Z,42.805,6.029,13.3014,4.60071,2470.684,2023-5-08T06:15:47Z
2023-05-08T04:15:41Z,42.805,6.029,13.3018,4.60069,2470.693,2023-5-08T06:18:51Z
2023-05-08T04:18:44Z,42.805,6.029,13.3017,4.60072,2470.67,2023-5-08T06:21:54Z
2023-05-08T04:21:47Z,42.805,6.029,13.3015,4.60069,2470.707,2023-5-08T06:24:57Z
2023-05-08T04:24:50Z,42.805,6.029,13.3019,4.60068,2470.67,2023-5-08T06:28:00Z
2023-05-08T04:27:53Z,42.805,6.029,13.3013,4.60069,2470.693,2023-5-08T06:31:03Z
2023-05-08T04:30:56Z,42.805,6.029,13.3013,4.60068,2470.67,2023-5-08T06:34:06Z
2023-05-08T04:34:00Z,42.805,6.029,13.3021,4.60070,2470.67,2023-5-08T06:37:09Z
2023-05-08T04:37:03Z,42.805,6.029,13.3016,4.60068,2470.693,2023-5-08T06:40:12Z
2023-05-08T04:40:06Z,42.805,6.029,13.3016,4.60070,2470.661,2023-5-08T06:43:15Z
2023-05-08T04:43:09Z,42.805,6.029,13.3017,4.60069,2470.707,2023-5-08T06:46:18Z
2023-05-08T04:46:12Z,42.805,6.029,13.3019,4.60069,2470.67,2023-5-08T06:49:21Z
2023-05-08T04:49:15Z,42.805,6.029,13.3018,4.60069,2470.67,2023-5-08T06:52:24Z
2023-05-08T04:52:18Z,42.805,6.029,13.3017,4.60069,2470.67,2023-5-08T06:55:27Z
2023-05-08T04:55:21Z,42.805,6.029,13.3013,4.60069,2470.693,2023-5-08T06:58:31Z
2023-05-08T04:58:24Z,42.805,6.029,13.3014,4.60069,2470.67,2023-5-08T07:01:34Z
2023-05-08T05:01:27Z,42.805,6.029,13.3019,4.60070,2470.73,2023-5-08T07:04:37Z
2023-05-08T05:04:30Z,42.805,6.029,13.3017,4.60069,2470.67,2023-5-08T07:07:40Z
2023-05-08T05:07:33Z,42.805,6.029,13.3015,4.60070,2470.693,2023-5-08T07:10:43Z
2023-05-08T05:10:36Z,42.805,6.029,13.3016,4.60072,2470.693,2023-5-08T07:13:46Z
2023-05-08T05:13:39Z,42.805,6.029,13.3015,4.60072,2470.707,2023-5-08T07:16:49Z
2023-05-08T05:16:43Z,42.805,6.029,13.3020,4.60070,2470.693,2023-5-08T07:19:52Z
2023-05-08T05:19:46Z,42.805,6.029,13.3014,4.60069,2470.717,2023-5-08T07:22:55Z
2023-05-08T05:22:49Z,42.805,6.029,13.3016,4.60069,2470.717,2023-5-08T07:25:58Z
2023-05-08T05:25:52Z,42.805,6.029,13.3015,4.60071,2470.707,2023-5-08T07:29:01Z
2023-05-08T05:28:55Z,42.805,6.029,13.3011,4.60069,2470.693,2023-5-08T07:32:04Z
2023-05-08T05:31:58Z,42.805,6.029,13.3019,4.60069,2470.67,2023-5-08T07:35:07Z
2023-05-08T05:35:01Z,42.805,6.029,13.3012,4.60071,2470.717,2023-5-08T07:38:11Z
2023-05-08T05:38:04Z,42.805,6.029,13.3019,4.60072,2470.74,2023-5-08T07:41:14Z
2023-05-08T05:41:07Z,42.805,6.029,13.3014,4.60070,2470.717,2023-5-08T07:44:17Z
2023-05-08T05:44:10Z,42.805,6.029,13.3014,4.60073,2470.717,2023-5-08T07:47:20Z
2023-05-08T05:47:13Z,42.805,6.029,13.3016,4.60072,2470.717,2023-5-08T07:50:23Z
2023-05-08T05:50:16Z,42.805,6.029,13.3014,4.60069,2470.73,2023-5-08T07:53:26Z
2023-05-08T05:53:19Z,42.805,6.029,13.3015,4.60070,2470.717,2023-5-08T07:56:29Z
2023-05-08T05:56:23Z,42.805,6.029,13.3017,4.60070,2470.717,2023-5-08T07:59:32Z
2023-05-08T05:59:26Z,42.805,6.029,13.3016,4.60072,2470.707,2023-5-08T08:02:35Z
2023-05-08T06:02:29Z,42.805,6.029,13.3017,4.60070,2470.717,2023-5-08T08:05:38Z
2023-05-08T06:05:32Z,42.805,6.029,13.3015,4.60074,2470.717,2023-5-08T08:08:41Z
2023-05-08T06:08:35Z,42.805,6.029,13.3017,4.60072,2470.717,2023-5-08T08:11:44Z
2023-05-08T06:11:38Z,42.805,6.029,13.3014,4.60071,2470.717,2023-5-08T08:14:47Z
2023-05-08T06:14:41Z,42.805,6.029,13.3019,4.60074,2470.754,2023-5-08T08:17:51Z
2023-05-08T06:17:44Z,42.805,6.029,13.3016,4.60072,2470.74,2023-5-08T08:20:54Z
2023-05-08T06:20:47Z,42.805,6.029,13.3015,4.60069,2470.74,2023-5-08T08:23:57Z
2023-05-08T06:23:50Z,42.805,6.029,13.3012,4.60069,2470.717,2023-5-08T08:27:00Z
2023-05-08T06:26:53Z,42.805,6.029,13.3014,4.60069,2470.74,2023-5-08T08:30:03Z
2023-05-08T06:29:56Z,42.805,6.029,13.3014,4.60068,2470.74,2023-5-08T08:33:06Z
2023-05-08T06:33:00Z,42.805,6.029,13.3014,4.60071,2470.717,2023-5-08T08:36:09Z
2023-05-08T06:36:03Z,42.805,6.029,13.3012,4.60070,2470.754,2023-5-08T08:39:12Z
2023-05-08T06:39:06Z,42.805,6.029,13.3014,4.60072,2470.754,2023-5-08T08:42:15Z
2023-05-08T06:42:09Z,42.805,6.029,13.3016,4.60068,2470.74,2023-5-08T08:45:18Z
2023-05-08T06:45:12Z,42.805,6.029,13.3012,4.60071,2470.74,2023-5-08T08:48:21Z
2023-05-08T06:48:15Z,42.805,6.029,13.3015,4.60068,2470.763,2023-5-08T08:51:24Z
2023-05-08T06:51:18Z,42.805,6.029,13.3019,4.60069,2470.74,2023-5-08T08:54:27Z
2023-05-08T06:54:21Z,42.805,6.029,13.3016,4.60068,2470.763,2023-5-08T08:57:31Z
2023-05-08T06:57:24Z,42.805,6.029,13.3016,4.60069,2470.777,2023-5-08T09:00:34Z
2023-05-08T07:00:27Z,42.805,6.029,13.3014,4.60068,2470.773,2023-5-08T09:03:37Z
2023-05-08T07:03:30Z,42.805,6.029,13.3018,4.60073,2470.787,2023-5-08T09:06:40Z
2023-05-08T07:06:33Z,42.805,6.029,13.3018,4.60068,2470.8,2023-5-08T09:09:43Z
2023-05-08T07:09:36Z,42.805,6.029,13.3017,4.60069,2470.777,2023-5-08T09:12:46Z
2023-05-08T07:12:39Z,42.805,6.029,13.3014,4.60072,2470.787,2023-5-08T09:15:49Z
2023-05-08T07:15:43Z,42.805,6.029,13.3011,4.60069,2470.763,2023-5-08T09:18:52Z
2023-05-08T07:18:46Z,42.805,6.029,13.3020,4.60068,2470.787,2023-5-08T09:21:55Z
2023-05-08T07:21:49Z,42.805,6.029,13.3013,4.60070,2470.787,2023-5-08T09:24:58Z
2023-05-08T07:24:52Z,42.805,6.029,13.3012,4.60069,2470.763,2023-5-08T09:28:01Z
2023-05-08T07:27:55Z,42.805,6.029,13.3018,4.60069,2470.81,2023-5-08T09:31:04Z
2023-05-08T07:30:58Z,42.805,6.029,13.3015,4.60069,2470.787,2023-5-08T09:34:07Z
2023-05-08T07:34:01Z,42.805,6.029,13.3015,4.60068,2470.787,2023-5-08T09:37:10Z
2023-05-08T07:37:04Z,42.805,6.029,13.3017,4.60069,2470.81,2023-5-08T09:40:14Z
2023-05-08T07:40:07Z,42.805,6.029,13.3019,4.60069,2470.777,2023-5-08T09:43:17Z
2023-05-08T07:43:10Z,42.805,6.029,13.3015,4.60069,2470.777,2023-5-08T09:46:20Z
2023-05-08T07:46:13Z,42.805,6.029,13.3017,4.60069,2470.787,2023-5-08T09:49:23Z
2023-05-08T07:49:16Z,42.805,6.029,13.3019,4.60069,2470.81,2023-5-08T09:52:26Z
2023-05-08T07:52:19Z,42.805,6.029,13.3018,4.60070,2470.763,2023-5-08T09:55:29Z
2023-05-08T07:55:23Z,42.805,6.029,13.3014,4.60069,2470.824,2023-5-08T09:58:32Z
2023-05-08T07:58:26Z,42.805,6.029,13.3015,4.60070,2470.81,2023-5-08T10:01:35Z
2023-05-08T08:01:29Z,42.805,6.029,13.3017,4.60072,2470.787,2023-5-08T10:04:38Z
2023-05-08T08:04:32Z,42.805,6.029,13.3015,4.60071,2470.824,2023-5-08T10:07:41Z
2023-05-08T08:07:35Z,42.805,6.029,13.3014,4.60069,2470.787,2023-5-08T10:10:44Z
2023-05-08T08:10:38Z,42.805,6.029,13.3016,4.60073,2470.8,2023-5-08T10:13:47Z
2023-05-08T08:13:41Z,42.805,6.029,13.3018,4.60071,2470.8,2023-5-08T10:16:51Z
2023-05-08T08:16:44Z,42.805,6.029,13.3014,4.60072,2470.824,2023-5-08T10:19:54Z
2023-05-08T08:19:47Z,42.805,6.029,13.3016,4.60072,2470.833,2023-5-08T10:22:57Z
2023-05-08T08:22:50Z,42.805,6.029,13.3014,4.60075,2470.8,2023-5-08T10:26:00Z
2023-05-08T08:25:53Z,42.805,6.029,13.3019,4.60072,2470.81,2023-5-08T10:29:03Z
2023-05-08T08:28:56Z,42.805,6.029,13.3015,4.60072,2470.8,2023-5-08T10:32:06Z
2023-05-08T08:31:58Z,42.805,6.029,13.3017,4.60075,2470.81,2023-5-08T10:35:08Z
2023-05-08T08:35:01Z,42.805,6.029,13.3019,4.60076,2470.81,2023-5-08T10:38:11Z
2023-05-08T08:38:04Z,42.805,6.029,13.3015,4.60073,2470.8,2023-5-08T10:41:14Z
2023-05-08T08:41:07Z,42.805,6.029,13.3019,4.60074,2470.787,2023-5-08T10:44:17Z
2023-05-08T08:44:10Z,42.805,6.029,13.3015,4.60072,2470.787,2023-5-08T10:47:20Z
2023-05-08T08:47:13Z,42.805,6.029,13.3017,4.60072,2470.777,2023-5-08T10:50:23Z
2023-05-08T08:50:17Z,42.805,6.029,13.3014,4.60074,2470.8,2023-5-08T10:53:26Z
2023-05-08T08:53:20Z,42.805,6.029,13.3015,4.60072,2470.787,2023-5-08T10:56:29Z
2023-05-08T08:56:23Z,42.805,6.029,13.3015,4.60074,2470.787,2023-5-08T10:59:32Z
2023-05-08T08:59:26Z,42.805,6.029,13.3017,4.60073,2470.824,2023-5-08T11:02:35Z
2023-05-08T09:02:29Z,42.805,6.029,13.3015,4.60072,2470.763,2023-5-08T11:05:38Z
2023-05-08T09:05:32Z,42.805,6.029,13.3015,4.60072,2470.81,2023-5-08T11:08:41Z
2023-05-08T09:08:35Z,42.805,6.029,13.3020,4.60073,2470.787,2023-5-08T11:11:45Z
2023-05-08T09:11:38Z,42.805,6.029,13.3018,4.60071,2470.787,2023-5-08T11:14:48Z
2023-05-08T09:14:41Z,42.805,6.029,13.3017,4.60074,2470.787,2023-5-08T11:17:51Z
2023-05-08T09:17:44Z,42.805,6.029,13.3015,4.60074,2470.763,2023-5-08T11:20:54Z
2023-05-08T09:20:47Z,42.805,6.029,13.3020,4.60074,2470.763,2023-5-08T11:23:57Z
2023-05-08T09:23:50Z,42.805,6.029,13.3016,4.60072,2470.787,2023-5-08T11:27:00Z
2023-05-08T09:26:54Z,42.805,6.029,13.3015,4.60073,2470.8,2023-5-08T11:30:03Z
2023-05-08T09:29:57Z,42.805,6.029,13.3015,4.60074,2470.754,2023-5-08T11:33:06Z
2023-05-08T09:33:00Z,42.805,6.029,13.3015,4.60074,2470.763,2023-5-08T11:36:09Z
2023-05-08T09:36:03Z,42.805,6.029,13.3018,4.60074,2470.787,2023-5-08T11:39:12Z
2023-05-08T09:39:06Z,42.805,6.029,13.3014,4.60075,2470.763,2023-5-08T11:42:15Z
2023-05-08T09:42:09Z,42.805,6.029,13.3014,4.60075,2470.74,2023-5-08T11:45:19Z
2023-05-08T09:45:12Z,42.805,6.029,13.3017,4.60074,2470.787,2023-5-08T11:48:22Z
2023-05-08T09:48:15Z,42.805,6.029,13.3014,4.60073,2470.763,2023-5-08T11:51:25Z
2023-05-08T09:51:18Z,42.805,6.029,13.3012,4.60078,2470.763,2023-5-08T11:54:28Z
2023-05-08T09:54:21Z,42.805,6.029,13.3017,4.60074,2470.717,2023-5-08T11:57:31Z
2023-05-08T09:57:24Z,42.805,6.029,13.3017,4.60075,2470.754,2023-5-08T12:00:34Z
2023-05-08T10:00:27Z,42.805,6.029,13.3015,4.60074,2470.777,2023-5-08T12:03:37Z
2023-05-08T10:03:31Z,42.805,6.029,13.3015,4.60075,2470.754,2023-5-08T12:06:40Z
2023-05-08T10:06:34Z,42.805,6.029,13.3015,4.60074,2470.763,2023-5-08T12:09:43Z
2023-05-08T10:09:37Z,42.805,6.029,13.3018,4.60073,2470.763,2023-5-08T12:12:46Z
2023-05-08T10:12:40Z,42.805,6.029,13.3013,4.60074,2470.74,2023-5-08T12:15:49Z
2023-05-08T10:15:43Z,42.805,6.029,13.3014,4.60072,2470.74,2023-5-08T12:18:52Z
2023-05-08T10:18:46Z,42.805,6.029,13.3011,4.60073,2470.707,2023-5-08T12:21:55Z
2023-05-08T10:21:49Z,42.805,6.029,13.3013,4.60075,2470.74,2023-5-08T12:24:59Z
2023-05-08T10:24:52Z,42.805,6.029,13.3015,4.60076,2470.763,2023-5-08T12:28:02Z
2023-05-08T10:27:55Z,42.805,6.029,13.3015,4.60078,2470.777,2023-5-08T12:31:05Z
2023-05-08T10:30:58Z,42.805,6.029,13.3012,4.60077,2470.74,2023-5-08T12:34:08Z
2023-05-08T10:34:01Z,42.805,6.029,13.3013,4.60074,2470.73,2023-5-08T12:37:11Z
2023-05-08T10:37:04Z,42.805,6.029,13.3015,4.60074,2470.777,2023-5-08T12:40:14Z
2023-05-08T10:40:08Z,42.805,6.029,13.3015,4.60078,2470.73,2023-5-08T12:43:17Z
2023-05-08T10:43:11Z,42.805,6.029,13.3020,4.60079,2470.717,2023-5-08T12:46:20Z
2023-05-08T10:46:14Z,42.805,6.029,13.3015,4.60076,2470.777,2023-5-08T12:49:23Z
2023-05-08T10:49:17Z,42.805,6.029,13.3016,4.60077,2470.73,2023-5-08T12:52:26Z
2023-05-08T10:52:20Z,42.805,6.029,13.3016,4.60078,2470.74,2023-5-08T12:55:29Z
2023-05-08T10:55:23Z,42.805,6.029,13.3014,4.60077,2470.717,2023-5-08T12:58:33Z
2023-05-08T10:58:26Z,42.805,6.029,13.3015,4.60078,2470.73,2023-5-08T13:01:36Z
2023-05-08T11:01:29Z,42.805,6.029,13.3012,4.60079,2470.754,2023-5-08T13:04:39Z
2023-05-08T11:04:32Z,42.805,6.029,13.3017,4.60081,2470.693,2023-5-08T13:07:42Z
2023-05-08T11:07:35Z,42.805,6.029,13.3014,4.60077,2470.717,2023-5-08T13:10:45Z
2023-05-08T11:10:38Z,42.805,6.029,13.3014,4.60087,2470.717,2023-5-08T13:13:48Z
2023-05-08T11:13:41Z,42.805,6.029,13.3015,4.60085,2470.684,2023-5-08T13:16:51Z
2023-05-08T11:16:45Z,42.805,6.029,13.3014,4.60075,2470.707,2023-5-08T13:19:54Z
2023-05-08T11:19:48Z,42.805,6.029,13.3017,4.60079,2470.73,2023-5-08T13:22:57Z
2023-05-08T11:22:51Z,42.805,6.029,13.3017,4.60079,2470.693,2023-5-08T13:26:00Z
2023-05-08T11:25:54Z,42.805,6.029,13.3014,4.60078,2470.73,2023-5-08T13:29:03Z
2023-05-08T11:28:57Z,42.805,6.029,13.3017,4.60079,2470.67,2023-5-08T13:32:06Z
2023-05-08T11:32:00Z,42.805,6.029,13.3020,4.60085,2470.67,2023-5-08T13:35:09Z
2023-05-08T11:35:03Z,42.805,6.029,13.3016,4.60085,2470.684,2023-5-08T13:38:13Z
2023-05-08T11:38:06Z,42.805,6.029,13.3014,4.60082,2470.646,2023-5-08T13:41:16Z
2023-05-08T11:41:09Z,42.805,6.029,13.3018,4.60081,2470.707,2023-5-08T13:44:19Z
2023-05-08T11:44:12Z,42.805,6.029,13.3015,4.60079,2470.707,2023-5-08T13:47:22Z
2023-05-08T11:47:15Z,42.805,6.029,13.3015,4.60077,2470.693,2023-5-08T13:50:25Z
2023-05-08T11:50:18Z,42.805,6.029,13.3015,4.60074,2470.707,2023-5-08T13:53:28Z
2023-05-08T11:53:22Z,42.805,6.029,13.3019,4.60078,2470.67,2023-5-08T13:56:31Z
2023-05-08T11:56:25Z,42.805,6.029,13.3015,4.60078,2470.693,2023-5-08T13:59:34Z
2023-05-08T11:59:28Z,42.805,6.029,13.3014,4.60075,2470.646,2023-5-08T14:02:37Z
2023-05-08T12:02:31Z,42.805,6.029,13.3014,4.60079,2470.693,2023-5-08T14:05:40Z
2023-05-08T12:05:34Z,42.805,6.029,13.3012,4.60075,2470.693,2023-5-08T14:08:43Z
2023-05-08T12:08:37Z,42.805,6.029,13.3015,4.60076,2470.646,2023-5-08T14:11:47Z
2023-05-08T12:11:40Z,42.805,6.029,13.3014,4.60074,2470.637,2023-5-08T14:14:50Z
2023-05-08T12:14:43Z,42.805,6.029,13.3015,4.60073,2470.661,2023-5-08T14:17:53Z
2023-05-08T12:17:46Z,42.805,6.029,13.3013,4.60072,2470.67,2023-5-08T14:20:56Z
2023-05-08T12:20:49Z,42.805,6.029,13.3014,4.60072,2470.624,2023-5-08T14:23:59Z
2023-05-08T12:23:52Z,42.805,6.029,13.3015,4.60073,2470.614,2023-5-08T14:27:02Z
2023-05-08T12:26:55Z,42.805,6.029,13.3015,4.60074,2470.646,2023-5-08T14:30:05Z
2023-05-08T12:29:58Z,42.805,6.029,13.3015,4.60081,2470.637,2023-5-08T14:33:08Z
2023-05-08T12:33:03Z,42.805,6.029,13.3018,4.60073,2470.684,2023-5-08T14:36:12Z
2023-05-08T12:36:06Z,42.805,6.029,13.3015,4.60074,2470.633,2023-5-08T14:39:15Z
2023-05-08T12:39:09Z,42.805,6.029,13.3015,4.60072,2470.646,2023-5-08T14:42:18Z
2023-05-08T12:42:12Z,42.805,6.029,13.3015,4.60072,2470.646,2023-5-08T14:45:21Z
2023-05-08T12:45:15Z,42.805,6.029,13.3017,4.60073,2470.624,2023-5-08T14:48:25Z
2023-05-08T12:48:18Z,42.805,6.029,13.3015,4.60072,2470.646,2023-5-08T14:51:28Z
2023-05-08T12:51:21Z,42.805,6.029,13.3016,4.60074,2470.624,2023-5-08T14:54:31Z
2023-05-08T12:54:24Z,42.805,6.029,13.3017,4.60079,2470.646,2023-5-08T14:57:34Z
2023-05-08T12:57:27Z,42.805,6.029,13.3016,4.60075,2470.646,2023-5-08T15:00:37Z
2023-05-08T13:00:30Z,42.805,6.029,13.3015,4.60073,2470.6,2023-5-08T15:03:40Z
2023-05-08T13:03:33Z,42.805,6.029,13.3018,4.60073,2470.6,2023-5-08T15:06:43Z
2023-05-08T13:06:37Z,42.805,6.029,13.3014,4.60070,2470.637,2023-5-08T15:09:46Z
2023-05-08T13:09:40Z,42.805,6.029,13.3015,4.60072,2470.6,2023-5-08T15:12:49Z
2023-05-08T13:12:43Z,42.805,6.029,13.3017,4.60073,2470.624,2023-5-08T15:15:52Z
2023-05-08T13:15:46Z,42.805,6.029,13.3015,4.60073,2470.6,2023-5-08T15:18:55Z
2023-05-08T13:18:49Z,42.805,6.029,13.3019,4.60077,2470.661,2023-5-08T15:21:58Z
2023-05-08T13:21:52Z,42.805,6.029,13.3017,4.60074,2470.637,2023-5-08T15:25:02Z
2023-05-08T13:24:55Z,42.805,6.029,13.3014,4.60077,2470.6,2023-5-08T15:28:05Z
2023-05-08T13:27:58Z,42.805,6.029,13.3016,4.60074,2470.6,2023-5-08T15:31:08Z
2023-05-08T13:31:01Z,42.805,6.029,13.3017,4.60076,2470.61,2023-5-08T15:34:11Z
2023-05-08T13:34:04Z,42.805,6.029,13.3017,4.60079,2470.61,2023-5-08T15:37:14Z
2023-05-08T13:37:07Z,42.805,6.029,13.3019,4.60081,2470.6,2023-5-08T15:40:17Z
2023-05-08T13:40:10Z,42.805,6.029,13.3019,4.60074,2470.6,2023-5-08T15:43:20Z
2023-05-08T13:43:14Z,42.805,6.029,13.3015,4.60076,2470.637,2023-5-08T15:46:23Z
2023-05-08T13:46:17Z,42.805,6.029,13.3016,4.60078,2470.6,2023-5-08T15:49:26Z
2023-05-08T13:49:20Z,42.805,6.029,13.3020,4.60077,2470.614,2023-5-08T15:52:29Z
2023-05-08T13:52:23Z,42.805,6.029,13.3013,4.60077,2470.6,2023-5-08T15:55:32Z
2023-05-08T13:55:26Z,42.805,6.029,13.3016,4.60077,2470.637,2023-5-08T15:58:36Z
2023-05-08T13:58:29Z,42.805,6.029,13.3019,4.60082,2470.577,2023-5-08T16:01:39Z
2023-05-08T14:01:32Z,42.805,6.029,13.3021,4.60084,2470.637,2023-5-08T16:04:42Z
2023-05-08T14:04:35Z,42.805,6.029,13.3016,4.60078,2470.614,2023-5-08T16:07:45Z
2023-05-08T14:07:38Z,42.805,6.029,13.3013,4.60079,2470.624,2023-5-08T16:10:48Z
2023-05-08T14:10:41Z,42.805,6.029,13.3014,4.60075,2470.624,2023-5-08T16:13:51Z
2023-05-08T14:13:44Z,42.805,6.029,13.3015,4.60073,2470.614,2023-5-08T16:16:54Z
2023-05-08T14:16:47Z,42.805,6.029,13.3019,4.60074,2470.577,2023-5-08T16:19:57Z
2023-05-08T14:19:50Z,42.805,6.029,13.3021,4.60072,2470.624,2023-5-08T16:23:00Z
2023-05-08T14:22:54Z,42.805,6.029,13.3017,4.60072,2470.614,2023-5-08T16:26:03Z
2023-05-08T14:25:57Z,42.805,6.029,13.3019,4.60072,2470.591,2023-5-08T16:29:06Z
2023-05-08T14:29:00Z,42.805,6.029,13.3018,4.60072,2470.591,2023-5-08T16:32:09Z
2023-05-08T14:32:03Z,42.805,6.029,13.3015,4.60070,2470.6,2023-5-08T16:35:12Z
2023-05-08T14:35:06Z,42.805,6.029,13.3017,4.60070,2470.6,2023-5-08T16:38:16Z
2023-05-08T14:38:09Z,42.805,6.029,13.3015,4.60069,2470.637,2023-5-08T16:41:19Z
2023-05-08T14:41:12Z,42.805,6.029,13.3013,4.60070,2470.614,2023-5-08T16:44:22Z
2023-05-08T14:44:15Z,42.805,6.029,13.3014,4.60069,2470.624,2023-5-08T16:47:25Z
2023-05-08T14:47:18Z,42.805,6.029,13.3014,4.60072,2470.6,2023-5-08T16:50:28Z
2023-05-08T14:50:21Z,42.805,6.029,13.3015,4.60069,2470.6,2023-5-08T16:53:31Z
2023-05-08T14:53:24Z,42.805,6.029,13.3015,4.60070,2470.577,2023-5-08T16:56:34Z
2023-05-08T14:56:27Z,42.805,6.029,13.3018,4.60070,2470.577,2023-5-08T16:59:37Z
2023-05-08T14:59:31Z,42.805,6.029,13.3019,4.60072,2470.591,2023-5-08T17:02:40Z
2023-05-08T15:02:34Z,42.805,6.029,13.3019,4.60070,2470.624,2023-5-08T17:05:43Z
2023-05-08T15:05:37Z,42.805,6.029,13.3015,4.60072,2470.563,2023-5-08T17:08:46Z
2023-05-08T15:08:40Z,42.805,6.029,13.3014,4.60070,2470.6,2023-5-08T17:11:49Z
2023-05-08T15:11:43Z,42.805,6.029,13.3015,4.60070,2470.614,2023-5-08T17:14:53Z
2023-05-08T15:14:46Z,42.805,6.029,13.3019,4.60070,2470.577,2023-5-08T17:17:56Z